Time,TemperatureF,DewpointF,PressureIn,WindDirection,WindDirectionDegrees,WindSpeedMPH,WindSpeedGustMPH,Humidity,HourlyPrecipIn,Conditions,Clouds,dailyrainin,SoftwareType,DateUTC
2013-01-11 00:14:00,27.0,20.0,30.42,SSW,207,0.0,2.0,76,0.00,,,0.00,weatherlink.com 1.10,2013-01-11 05:14:00,
2013-01-11 00:29:00,26.1,20.0,30.41,SW,225,1.0,3.0,78,0.00,,,0.00,weatherlink.com 1.10,2013-01-11 05:29:00,
2013-01-11 00:44:00,26.6,20.0,30.41,WSW,243,0.0,4.0,77,0.00,,,0.00,weatherlink.com 1.10,2013-01-11 05:44:00,
2013-01-11 00:59:00,26.4,20.0,30.41,SSW,202,0.0,2.0,77,0.00,,,0.00,weatherlink.com 1.10,2013-01-11 05:59:00,
2013-01-11 01:14:00,26.7,20.0,30.40,SW,225,1.0,5.0,76,0.00,,,0.00,weatherlink.com 1.10,2013-01-11 06:14:00,
2013-01-11 01:29:00,26.5,20.0,30.41,SW,221,0.0,3.0,76,0.00,,,0.00,weatherlink.com 1.10,2013-01-11 06:29:00,
2013-01-11 01:44:00,26.5,20.0,30.41,SW,219,1.0,4.0,76,0.00,,,0.00,weatherlink.com 1.10,2013-01-11 06:44:00,
2013-01-11 01:59:00,26.1,20.0,30.40,West,265,1.0,4.0,76,0.00,,,0.00,weatherlink.com 1.10,2013-01-11 06:59:00,
2013-01-11 02:14:00,26.4,20.0,30.39,WSW,256,0.0,8.0,75,0.00,,,0.00,weatherlink.com 1.10,2013-01-11 07:14:00,
2013-01-11 02:29:00,26.6,20.0,30.39,SW,231,4.0,5.0,75,0.00,,,0.00,weatherlink.com 1.10,2013-01-11 07:29:00,
2013-01-11 02:44:00,26.9,20.0,30.40,SW,225,1.0,12.0,74,0.00,,,0.00,weatherlink.com 1.10,2013-01-11 07:44:00,
2013-01-11 02:59:00,27.0,20.0,30.40,NNE,30,3.0,7.0,74,0.00,,,0.00,weatherlink.com 1.10,2013-01-11 07:59:00,
2013-01-11 03:14:00,27.0,19.0,30.40,NNW,339,0.0,4.0,73,0.00,,,0.00,weatherlink.com 1.10,2013-01-11 08:14:00,
2013-01-11 03:29:00,27.4,20.0,30.39,NW,325,4.0,9.0,74,0.00,,,0.00,weatherlink.com 1.10,2013-01-11 08:29:00,
2013-01-11 03:44:00,27.7,20.0,30.39,NNW,331,7.0,8.0,72,0.00,,,0.00,weatherlink.com 1.10,2013-01-11 08:44:00,
2013-01-11 03:59:00,27.7,20.0,30.39,NW,326,0.0,10.0,72,0.00,,,0.00,weatherlink.com 1.10,2013-01-11 08:59:00,
2013-01-11 04:14:00,27.5,20.0,30.38,NNW,347,9.0,9.0,73,0.00,,,0.00,weatherlink.com 1.10,2013-01-11 09:14:00,
2013-01-11 04:29:00,27.3,19.0,30.39,North,351,5.0,10.0,71,0.00,,,0.00,weatherlink.com 1.10,2013-01-11 09:29:00,
2013-01-11 04:45:00,27.4,19.0,30.40,NW,317,0.0,14.0,71,0.00,,,0.00,weatherlink.com 1.10,2013-01-11 09:45:00,
2013-01-11 05:00:00,27.4,20.0,30.39,SSW,212,0.0,13.0,73,0.00,,,0.00,weatherlink.com 1.10,2013-01-11 10:00:00,
2013-01-11 05:15:00,27.6,20.0,30.39,NW,322,8.0,13.0,72,0.00,,,0.00,weatherlink.com 1.10,2013-01-11 10:15:00,
2013-01-11 05:30:00,26.9,19.0,30.39,NNW,347,9.0,9.0,72,0.00,,,0.00,weatherlink.com 1.10,2013-01-11 10:30:00,
2013-01-11 05:45:00,27.0,19.0,30.39,NNW,336,6.0,10.0,73,0.00,,,0.00,weatherlink.com 1.10,2013-01-11 10:45:00,
2013-01-11 06:00:00,26.7,19.0,30.40,NNW,344,5.0,12.0,73,0.00,,,0.00,weatherlink.com 1.10,2013-01-11 11:00:00,
2013-01-11 06:15:00,26.5,19.0,30.41,WNW,302,1.0,13.0,73,0.00,,,0.00,weatherlink.com 1.10,2013-01-11 11:15:00,
2013-01-11 06:30:00,25.3,17.0,30.42,WSW,238,0.0,4.0,72,0.00,,,0.00,weatherlink.com 1.10,2013-01-11 11:30:00,
2013-01-11 06:45:00,25.4,18.0,30.41,NW,325,1.0,5.0,74,0.00,,,0.00,weatherlink.com 1.10,2013-01-11 11:45:00,
2013-01-11 07:00:00,25.2,18.0,30.42,NNW,330,1.0,7.0,73,0.00,,,0.00,weatherlink.com 1.10,2013-01-11 12:00:00,
2013-01-11 07:15:00,25.4,18.0,30.43,NW,322,5.0,9.0,74,0.00,,,0.00,weatherlink.com 1.10,2013-01-11 12:15:00,
2013-01-11 07:30:00,25.3,18.0,30.43,NNW,331,0.0,7.0,74,0.00,,,0.00,weatherlink.com 1.10,2013-01-11 12:30:00,
2013-01-11 07:45:00,25.8,19.0,30.43,NNW,344,7.0,11.0,75,0.00,,,0.00,weatherlink.com 1.10,2013-01-11 12:45:00,
2013-01-11 08:00:00,26.4,20.0,30.44,NNW,336,9.0,12.0,78,0.00,,,0.00,weatherlink.com 1.10,2013-01-11 13:00:00,
2013-01-11 08:15:00,26.2,19.0,30.45,WSW,255,0.0,8.0,75,0.00,,,0.00,weatherlink.com 1.10,2013-01-11 13:15:00,
2013-01-11 08:30:00,26.2,18.0,30.45,NNW,343,8.0,9.0,72,0.00,,,0.00,weatherlink.com 1.10,2013-01-11 13:30:00,
2013-01-11 08:45:00,26.9,19.0,30.45,NNE,14,4.0,9.0,71,0.00,,,0.00,weatherlink.com 1.10,2013-01-11 13:45:00,
2013-01-11 09:00:00,27.4,20.0,30.45,NNW,341,8.0,14.0,74,0.00,,,0.00,weatherlink.com 1.10,2013-01-11 14:00:00,
2013-01-11 09:15:00,27.8,19.0,30.45,NW,318,1.0,12.0,70,0.00,,,0.00,weatherlink.com 1.10,2013-01-11 14:15:00,
2013-01-11 09:30:00,28.3,20.0,30.45,NNW,343,8.0,13.0,71,0.00,,,0.00,weatherlink.com 1.10,2013-01-11 14:30:00,
2013-01-11 09:45:00,28.7,20.0,30.45,NNW,335,9.0,10.0,69,0.00,,,0.00,weatherlink.com 1.10,2013-01-11 14:45:00,
2013-01-11 10:00:00,28.8,19.0,30.45,NNW,337,8.0,11.0,68,0.00,,,0.00,weatherlink.com 1.10,2013-01-11 15:00:00,
2013-01-11 10:15:00,28.8,20.0,30.44,North,350,6.0,10.0,70,0.00,,,0.00,weatherlink.com 1.10,2013-01-11 15:15:00,
2013-01-11 10:30:00,29.0,20.0,30.43,North,5,4.0,7.0,69,0.00,,,0.00,weatherlink.com 1.10,2013-01-11 15:30:00,
2013-01-11 10:46:00,29.3,20.0,30.42,North,11,5.0,8.0,68,0.00,,,0.00,weatherlink.com 1.10,2013-01-11 15:46:00,
2013-01-11 11:01:00,29.9,20.0,30.41,North,355,4.0,6.0,67,0.00,,,0.00,weatherlink.com 1.10,2013-01-11 16:01:00,
2013-01-11 11:16:00,30.1,20.0,30.39,NNW,342,4.0,8.0,67,0.00,,,0.00,weatherlink.com 1.10,2013-01-11 16:16:00,
2013-01-11 11:31:00,30.5,20.0,30.38,NNW,343,6.0,8.0,65,0.00,,,0.00,weatherlink.com 1.10,2013-01-11 16:31:00,
2013-01-11 11:46:00,30.7,20.0,30.37,NNW,342,3.0,7.0,64,0.00,,,0.00,weatherlink.com 1.10,2013-01-11 16:46:00,
2013-01-11 12:01:00,31.6,19.0,30.36,North,5,2.0,5.0,60,0.00,,,0.00,weatherlink.com 1.10,2013-01-11 17:01:00,
2013-01-11 12:16:00,31.5,19.0,30.34,North,355,5.0,9.0,61,0.00,,,0.00,weatherlink.com 1.10,2013-01-11 17:16:00,
2013-01-11 12:31:00,32.5,21.0,30.33,NNW,338,6.0,10.0,63,0.00,,,0.00,weatherlink.com 1.10,2013-01-11 17:31:00,
2013-01-11 12:46:00,32.8,21.0,30.32,NNW,333,6.0,9.0,62,0.00,,,0.00,weatherlink.com 1.10,2013-01-11 17:46:00,
2013-01-11 13:01:00,33.2,20.0,30.32,NNW,341,5.0,7.0,59,0.00,,,0.00,weatherlink.com 1.10,2013-01-11 18:01:00,
2013-01-11 13:16:00,34.2,20.0,30.31,NNW,331,4.0,8.0,56,0.00,,,0.00,weatherlink.com 1.10,2013-01-11 18:16:00,
2013-01-11 13:31:00,34.3,20.0,30.31,NNW,342,4.0,5.0,57,0.00,,,0.00,weatherlink.com 1.10,2013-01-11 18:31:00,
2013-01-11 13:46:00,34.5,19.0,30.30,NNW,338,0.0,5.0,54,0.00,,,0.00,weatherlink.com 1.10,2013-01-11 18:46:00,
2013-01-11 14:01:00,35.1,20.0,30.31,NW,319,1.0,4.0,55,0.00,,,0.00,weatherlink.com 1.10,2013-01-11 19:01:00,
2013-01-11 14:16:00,34.7,19.0,30.31,NNW,340,0.0,2.0,54,0.00,,,0.00,weatherlink.com 1.10,2013-01-11 19:16:00,
2013-01-11 14:31:00,34.7,20.0,30.31,NNW,340,0.0,2.0,56,0.00,,,0.00,weatherlink.com 1.10,2013-01-11 19:31:00,
2013-01-11 14:46:00,34.7,20.0,30.30,WNW,296,0.0,0.0,56,0.00,,,0.00,weatherlink.com 1.10,2013-01-11 19:46:00,
2013-01-11 15:01:00,35.2,21.0,30.29,WNW,296,1.0,2.0,56,0.00,,,0.00,weatherlink.com 1.10,2013-01-11 20:01:00,
2013-01-11 15:16:00,35.1,23.0,30.28,North,351,2.0,4.0,61,0.00,,,0.00,weatherlink.com 1.10,2013-01-11 20:16:00,
2013-01-11 15:31:00,35.1,22.0,30.28,NNW,347,2.0,4.0,60,0.00,,,0.00,weatherlink.com 1.10,2013-01-11 20:31:00,
2013-01-11 15:46:00,35.0,23.0,30.27,North,350,0.0,5.0,62,0.00,,,0.00,weatherlink.com 1.10,2013-01-11 20:46:00,
2013-01-11 16:01:00,33.2,22.0,30.27,North,350,0.0,0.0,63,0.00,,,0.00,weatherlink.com 1.10,2013-01-11 21:01:00,
2013-01-11 16:16:00,32.5,22.0,30.27,North,350,0.0,0.0,65,0.00,,,0.00,weatherlink.com 1.10,2013-01-11 21:16:00,
2013-01-11 16:31:00,31.8,23.0,30.27,WNW,301,1.0,2.0,69,0.00,,,0.00,weatherlink.com 1.10,2013-01-11 21:31:00,
2013-01-11 16:46:00,31.4,23.0,30.27,WNW,292,0.0,0.0,71,0.00,,,0.00,weatherlink.com 1.10,2013-01-11 21:46:00,
2013-01-11 17:01:00,31.5,22.0,30.26,WNW,292,0.0,0.0,67,0.00,,,0.00,weatherlink.com 1.10,2013-01-11 22:01:00,
2013-01-11 17:16:00,31.4,23.0,30.27,WNW,292,0.0,0.0,71,0.00,,,0.00,weatherlink.com 1.10,2013-01-11 22:16:00,
2013-01-11 17:31:00,31.2,23.0,30.26,WNW,292,0.0,0.0,71,0.00,,,0.00,weatherlink.com 1.10,2013-01-11 22:31:00,
2013-01-11 17:46:00,31.2,23.0,30.26,WNW,292,0.0,0.0,72,0.00,,,0.00,weatherlink.com 1.10,2013-01-11 22:46:00,
2013-01-11 18:01:00,31.3,24.0,30.26,WNW,292,0.0,0.0,73,0.00,,,0.00,weatherlink.com 1.10,2013-01-11 23:01:00,
2013-01-11 18:16:00,32.4,24.0,30.26,WNW,290,0.0,1.0,71,0.00,,,0.00,weatherlink.com 1.10,2013-01-11 23:16:00,
2013-01-11 18:31:00,33.2,24.0,30.26,WNW,290,0.0,2.0,68,0.00,,,0.00,weatherlink.com 1.10,2013-01-11 23:31:00,
2013-01-11 18:46:00,31.8,24.0,30.27,WNW,290,0.0,2.0,74,0.00,,,0.00,weatherlink.com 1.10,2013-01-11 23:46:00,
2013-01-11 19:01:00,31.5,24.0,30.27,WNW,290,0.0,0.0,75,0.00,,,0.00,weatherlink.com 1.10,2013-01-12 00:01:00,
2013-01-11 19:16:00,31.9,25.0,30.27,WNW,290,0.0,0.0,74,0.00,,,0.00,weatherlink.com 1.10,2013-01-12 00:16:00,
2013-01-11 19:31:00,31.6,25.0,30.27,WNW,290,0.0,0.0,75,0.00,,,0.00,weatherlink.com 1.10,2013-01-12 00:31:00,
2013-01-11 19:47:00,31.5,24.0,30.27,WNW,290,0.0,0.0,75,0.00,,,0.00,weatherlink.com 1.10,2013-01-12 00:47:00,
2013-01-11 20:01:00,31.6,25.0,30.28,WNW,290,0.0,0.0,75,0.00,,,0.00,weatherlink.com 1.10,2013-01-12 01:01:00,
2013-01-11 20:17:00,31.8,25.0,30.27,WNW,286,2.0,2.0,75,0.00,,,0.00,weatherlink.com 1.10,2013-01-12 01:17:00,
2013-01-11 20:32:00,32.5,26.0,30.26,WNW,283,0.0,0.0,76,0.00,,,0.00,weatherlink.com 1.10,2013-01-12 01:32:00,
2013-01-11 20:47:00,32.3,26.0,30.25,WNW,283,0.0,1.0,77,0.00,,,0.00,weatherlink.com 1.10,2013-01-12 01:47:00,
2013-01-11 21:02:00,32.6,26.0,30.24,WNW,283,0.0,0.0,77,0.00,,,0.00,weatherlink.com 1.10,2013-01-12 02:02:00,
2013-01-11 21:17:00,34.6,27.0,30.23,ENE,68,5.0,5.0,74,0.00,,,0.00,weatherlink.com 1.10,2013-01-12 02:17:00,
2013-01-11 21:47:00,33.8,26.0,30.23,NE,49,3.0,5.0,72,0.00,,,0.00,weatherlink.com 1.10,2013-01-12 02:47:00,
2013-01-11 22:02:00,33.5,25.0,30.24,NE,36,2.0,4.0,72,0.00,,,0.00,weatherlink.com 1.10,2013-01-12 03:02:00,
2013-01-11 22:17:00,33.1,26.0,30.24,NE,36,0.0,3.0,76,0.00,,,0.00,weatherlink.com 1.10,2013-01-12 03:17:00,
2013-01-11 22:32:00,32.1,27.0,30.24,NE,36,0.0,1.0,81,0.00,,,0.00,weatherlink.com 1.10,2013-01-12 03:32:00,
2013-01-11 22:47:00,31.7,27.0,30.24,NE,36,1.0,1.0,84,0.00,,,0.00,weatherlink.com 1.10,2013-01-12 03:47:00,
2013-01-11 23:02:00,31.5,27.0,30.23,NE,36,0.0,0.0,84,0.00,,,0.00,weatherlink.com 1.10,2013-01-12 04:02:00,
2013-01-11 23:17:00,31.5,28.0,30.23,NE,36,0.0,0.0,85,0.00,,,0.00,weatherlink.com 1.10,2013-01-12 04:17:00,
2013-01-11 23:32:00,31.9,27.0,30.21,NE,36,5.0,5.0,83,0.00,,,0.00,weatherlink.com 1.10,2013-01-12 04:32:00,
2013-01-11 23:47:00,33.5,27.0,30.21,NNE,30,2.0,5.0,76,0.00,,,0.00,weatherlink.com 1.10,2013-01-12 04:47:00,